MTN8359 KIAD-KMVY

Flight info

Callsign MTN8359
Flight time 2h 28m
Altitude 9000
Route EMI V419 CMK V188 GON V374 FALMA T255 MVY
Aircraft C208/L-SDF/C

Departure

Time 2026-05-05 08:28
Airport Washington Dulles International Airport (KIAD)

Arrival

Time 2026-05-05 10:57
Airport Martha's Vineyard Airport (KMVY)
Time Latitude Longitude Altitude Speed Heading
2026-05-05 08:18 38.95766 -77.45416 295 ft 0 kts 90°
2026-05-05 08:22 38.95766 -77.45418 291 ft 2 kts 90°
2026-05-05 08:22 38.95766 -77.45452 291 ft 4 kts 90°
2026-05-05 08:23 38.95767 -77.45486 292 ft 4 kts 96°
2026-05-05 08:23 38.95778 -77.45508 291 ft 1 kts 181°
2026-05-05 08:23 38.95782 -77.45508 295 ft 0 kts 181°
2026-05-05 08:25 38.95752 -77.45509 293 ft 12 kts 192°
2026-05-05 08:25 38.95720 -77.45649 293 ft 22 kts 269°
2026-05-05 08:25 38.95596 -77.45711 291 ft 24 kts 180°
2026-05-05 08:25 38.95399 -77.45711 292 ft 33 kts 180°
2026-05-05 08:26 38.95143 -77.45716 293 ft 40 kts 181°
2026-05-05 08:26 38.94845 -77.45721 292 ft 45 kts 180°
2026-05-05 08:26 38.94519 -77.45725 293 ft 48 kts 181°
2026-05-05 08:26 38.94174 -77.45729 291 ft 50 kts 181°
2026-05-05 08:27 38.93825 -77.45734 291 ft 45 kts 180°
2026-05-05 08:27 38.93600 -77.45800 294 ft 27 kts 200°
2026-05-05 08:27 38.93455 -77.45909 291 ft 18 kts 290°
2026-05-05 08:27 38.93483 -77.46005 293 ft 26 kts 291°
2026-05-05 08:28 38.93623 -77.46475 299 ft 84 kts 290°
2026-05-05 08:28 38.93887 -77.47276 497 ft 101 kts 297°
2026-05-05 08:28 38.94448 -77.47803 816 ft 106 kts 341°
2026-05-05 08:28 38.95188 -77.48086 1086 ft 111 kts 341°
2026-05-05 08:29 38.95925 -77.48303 1438 ft 109 kts
2026-05-05 08:29 38.96582 -77.47836 1775 ft 109 kts 36°
2026-05-05 08:29 38.97194 -77.47249 2118 ft 110 kts 41°
2026-05-05 08:30 38.98445 -77.46056 2780 ft 115 kts 36°
2026-05-05 08:30 38.99110 -77.45430 3049 ft 125 kts 34°
2026-05-05 08:30 38.99849 -77.44730 3277 ft 138 kts 32°
2026-05-05 08:30 39.00643 -77.43978 3525 ft 145 kts 31°
2026-05-05 08:31 39.01473 -77.43198 3780 ft 151 kts 31°
2026-05-05 08:31 39.02337 -77.42387 4032 ft 157 kts 32°
2026-05-05 08:31 39.03231 -77.41544 4273 ft 161 kts 32°
2026-05-05 08:31 39.04137 -77.40694 4513 ft 161 kts 31°
2026-05-05 08:32 39.05049 -77.39839 4749 ft 163 kts 32°
2026-05-05 08:32 39.05969 -77.38975 4978 ft 165 kts 31°
2026-05-05 08:32 39.06899 -77.38105 5208 ft 166 kts 31°
2026-05-05 08:32 39.07822 -77.37238 5433 ft 166 kts 31°
2026-05-05 08:33 39.08759 -77.36361 5661 ft 167 kts 31°
2026-05-05 08:33 39.09695 -77.35483 5886 ft 166 kts 31°
2026-05-05 08:33 39.10630 -77.34603 6103 ft 167 kts 30°
2026-05-05 08:33 39.11565 -77.33724 6334 ft 166 kts 30°
2026-05-05 08:34 39.12496 -77.32849 6560 ft 165 kts 30°
2026-05-05 08:34 39.13427 -77.31972 6783 ft 166 kts 30°
2026-05-05 08:34 39.14358 -77.31098 7008 ft 165 kts 30°
2026-05-05 08:34 39.15288 -77.30224 7234 ft 166 kts 30°
2026-05-05 08:35 39.16218 -77.29347 7456 ft 165 kts 30°
2026-05-05 08:35 39.17145 -77.28474 7678 ft 165 kts 30°
2026-05-05 08:35 39.18070 -77.27601 7905 ft 165 kts 30°
2026-05-05 08:35 39.18994 -77.26733 8126 ft 164 kts 29°
2026-05-05 08:36 39.19915 -77.25866 8350 ft 164 kts 29°
2026-05-05 08:36 39.20832 -77.24999 8563 ft 163 kts 30°
2026-05-05 08:36 39.21747 -77.24136 8796 ft 163 kts 29°
2026-05-05 08:36 39.22677 -77.23297 9027 ft 163 kts 27°
2026-05-05 08:37 39.23593 -77.22441 9240 ft 163 kts 29°
2026-05-05 08:37 39.24495 -77.21599 9467 ft 162 kts 27°
2026-05-05 08:37 39.25402 -77.20746 9690 ft 161 kts 28°
2026-05-05 08:37 39.26305 -77.19887 9914 ft 160 kts 28°
2026-05-05 08:38 39.27203 -77.19034 10136 ft 160 kts 28°
2026-05-05 08:38 39.28100 -77.18185 10362 ft 159 kts 28°
2026-05-05 08:38 39.28992 -77.17342 10585 ft 159 kts 28°
2026-05-05 08:38 39.29883 -77.16498 10809 ft 158 kts 28°
2026-05-05 08:39 39.30781 -77.15652 10938 ft 164 kts 28°
2026-05-05 08:39 39.31735 -77.14754 10968 ft 174 kts 29°
2026-05-05 08:39 39.32735 -77.13808 10967 ft 181 kts 29°
2026-05-05 08:39 39.33764 -77.12833 10966 ft 185 kts 30°
2026-05-05 08:40 39.34807 -77.11846 10968 ft 187 kts 30°
2026-05-05 08:40 39.35859 -77.10849 10967 ft 188 kts 30°
2026-05-05 08:40 39.36915 -77.09848 10967 ft 189 kts 30°
2026-05-05 08:40 39.37961 -77.08854 10969 ft 189 kts 30°
2026-05-05 08:41 39.39023 -77.07847 10967 ft 190 kts 30°
2026-05-05 08:41 39.40090 -77.06833 10967 ft 190 kts 30°
2026-05-05 08:41 39.41161 -77.05816 10968 ft 191 kts 30°
2026-05-05 08:41 39.42231 -77.04800 10967 ft 191 kts 30°
2026-05-05 08:42 39.43303 -77.03780 10956 ft 191 kts 30°
2026-05-05 08:42 39.44373 -77.02762 10956 ft 191 kts 30°
2026-05-05 08:42 39.45442 -77.01745 10954 ft 190 kts 30°
2026-05-05 08:42 39.46508 -77.00729 10955 ft 190 kts 30°
2026-05-05 08:43 39.47577 -76.99712 10954 ft 191 kts 30°
2026-05-05 08:43 39.48647 -76.98693 10946 ft 191 kts 30°
2026-05-05 08:43 39.49600 -76.97484 10932 ft 197 kts 53°
2026-05-05 08:43 39.50181 -76.95862 10937 ft 198 kts 65°
2026-05-05 08:44 39.50713 -76.94212 10933 ft 198 kts 64°
2026-05-05 08:44 39.51253 -76.92576 10931 ft 197 kts 64°
2026-05-05 08:44 39.51784 -76.90961 10932 ft 198 kts 64°
2026-05-05 08:44 39.52324 -76.89321 10938 ft 197 kts 64°
2026-05-05 08:45 39.52862 -76.87685 10928 ft 197 kts 64°
2026-05-05 08:45 39.53399 -76.86048 10935 ft 198 kts 64°
2026-05-05 08:45 39.53939 -76.84400 10938 ft 198 kts 64°
2026-05-05 08:45 39.54477 -76.82757 10926 ft 198 kts 64°
2026-05-05 08:46 39.55015 -76.81119 10946 ft 197 kts 64°
2026-05-05 08:46 39.55551 -76.79480 10945 ft 197 kts 64°
2026-05-05 08:46 39.56081 -76.77866 10946 ft 197 kts 64°
2026-05-05 08:46 39.56622 -76.76229 10934 ft 198 kts 64°
2026-05-05 08:47 39.57161 -76.74587 10944 ft 198 kts 64°
2026-05-05 08:47 39.57700 -76.72949 10945 ft 198 kts 64°
2026-05-05 08:47 39.58238 -76.71309 10941 ft 198 kts 64°
2026-05-05 08:47 39.58776 -76.69665 10938 ft 198 kts 64°
2026-05-05 08:48 39.59317 -76.68021 10945 ft 198 kts 64°
2026-05-05 08:48 39.59857 -76.66373 10940 ft 199 kts 64°
2026-05-05 08:48 39.60398 -76.64721 10934 ft 198 kts 64°
2026-05-05 08:48 39.60938 -76.63075 10940 ft 198 kts 64°
2026-05-05 08:49 39.61477 -76.61425 10940 ft 199 kts 64°
2026-05-05 08:49 39.62017 -76.59774 10946 ft 198 kts 64°
2026-05-05 08:49 39.62540 -76.58174 10937 ft 199 kts 64°
2026-05-05 08:49 39.63095 -76.56473 10944 ft 199 kts 64°
2026-05-05 08:50 39.63634 -76.54820 10932 ft 199 kts 64°
2026-05-05 08:50 39.64176 -76.53165 10944 ft 199 kts 64°
2026-05-05 08:50 39.64715 -76.51508 10936 ft 199 kts 64°
2026-05-05 08:50 39.65249 -76.49869 10938 ft 199 kts 64°
2026-05-05 08:51 39.65788 -76.48215 10941 ft 199 kts 64°
2026-05-05 08:51 39.66328 -76.46556 10935 ft 199 kts 64°
2026-05-05 08:51 39.66867 -76.44898 10938 ft 199 kts 64°
2026-05-05 08:51 39.67406 -76.43241 10940 ft 199 kts 64°
2026-05-05 08:52 39.67945 -76.41580 10935 ft 200 kts 64°
2026-05-05 08:52 39.68485 -76.39917 10938 ft 200 kts 64°
2026-05-05 08:52 39.69025 -76.38255 10933 ft 200 kts 64°
2026-05-05 08:52 39.69564 -76.36590 10937 ft 200 kts 64°
2026-05-05 08:53 39.70106 -76.34920 10938 ft 200 kts 64°
2026-05-05 08:53 39.70647 -76.33251 10931 ft 200 kts 64°
2026-05-05 08:53 39.71186 -76.31583 10932 ft 200 kts 64°
2026-05-05 08:53 39.71725 -76.29917 10936 ft 200 kts 64°
2026-05-05 08:54 39.72265 -76.28249 10933 ft 200 kts 64°
2026-05-05 08:54 39.72805 -76.26583 10924 ft 200 kts 64°
2026-05-05 08:54 39.73343 -76.24914 10929 ft 201 kts 64°
2026-05-05 08:54 39.73877 -76.23258 10930 ft 201 kts 64°
2026-05-05 08:55 39.74416 -76.21584 10934 ft 201 kts 64°
2026-05-05 08:55 39.74955 -76.19911 10930 ft 201 kts 64°
2026-05-05 08:55 39.75496 -76.18234 10934 ft 200 kts 64°
2026-05-05 08:55 39.76032 -76.16566 10937 ft 200 kts 64°
2026-05-05 08:56 39.76573 -76.14892 10936 ft 201 kts 64°
2026-05-05 08:56 39.77113 -76.13206 10936 ft 202 kts 64°
2026-05-05 08:56 39.77656 -76.11523 10936 ft 202 kts 64°
2026-05-05 08:56 39.78195 -76.09842 10935 ft 201 kts 64°
2026-05-05 08:57 39.78735 -76.08163 10934 ft 201 kts 65°
2026-05-05 08:57 39.79274 -76.06480 10932 ft 201 kts 65°
2026-05-05 08:57 39.79807 -76.04820 10928 ft 201 kts 65°
2026-05-05 08:57 39.80351 -76.03123 10928 ft 201 kts 65°
2026-05-05 08:58 39.80883 -76.01461 10928 ft 201 kts 65°
2026-05-05 08:58 39.81420 -75.99781 10930 ft 201 kts 65°
2026-05-05 08:58 39.81956 -75.98103 10935 ft 201 kts 65°
2026-05-05 08:58 39.82494 -75.96422 10931 ft 201 kts 65°
2026-05-05 08:59 39.83030 -75.94742 10928 ft 201 kts 65°
2026-05-05 08:59 39.83566 -75.93064 10935 ft 201 kts 65°
2026-05-05 08:59 39.84102 -75.91382 10934 ft 201 kts 65°
2026-05-05 08:59 39.84638 -75.89705 10934 ft 201 kts 65°
2026-05-05 09:00 39.85174 -75.88021 10931 ft 201 kts 65°
2026-05-05 09:00 39.85711 -75.86337 10930 ft 201 kts 65°
2026-05-05 09:00 39.86245 -75.84656 10946 ft 201 kts 65°
2026-05-05 09:00 39.86772 -75.82997 10939 ft 201 kts 65°
2026-05-05 09:01 39.87307 -75.81318 10941 ft 201 kts 65°
2026-05-05 09:01 39.87841 -75.79640 10940 ft 201 kts 65°
2026-05-05 09:01 39.88375 -75.77956 10939 ft 201 kts 65°
2026-05-05 09:01 39.88911 -75.76271 10941 ft 201 kts 65°
2026-05-05 09:02 39.89444 -75.74589 10944 ft 201 kts 65°
2026-05-05 09:02 39.89976 -75.72907 10944 ft 201 kts 65°
2026-05-05 09:02 39.90510 -75.71220 10944 ft 201 kts 65°
2026-05-05 09:02 39.91043 -75.69540 10944 ft 201 kts 65°
2026-05-05 09:03 39.91576 -75.67856 10938 ft 201 kts 64°
2026-05-05 09:03 39.92328 -75.66359 10951 ft 196 kts 40°
2026-05-05 09:03 39.93285 -75.65094 10951 ft 196 kts 41°
2026-05-05 09:03 39.94205 -75.63815 10951 ft 196 kts 41°
2026-05-05 09:04 39.95138 -75.62518 10951 ft 196 kts 41°
2026-05-05 09:04 39.96078 -75.61226 10951 ft 196 kts 41°
2026-05-05 09:04 39.97020 -75.59928 10949 ft 198 kts 43°
2026-05-05 09:04 39.97966 -75.58622 10950 ft 198 kts 43°
2026-05-05 09:05 39.98914 -75.57312 10950 ft 199 kts 43°
2026-05-05 09:05 39.99867 -75.55998 10949 ft 199 kts 43°
2026-05-05 09:05 40.00821 -75.54680 10949 ft 200 kts 43°
2026-05-05 09:05 40.01776 -75.53359 10951 ft 200 kts 42°
2026-05-05 09:06 40.02735 -75.52036 10950 ft 200 kts 43°
2026-05-05 09:06 40.03692 -75.50712 10949 ft 201 kts 43°
2026-05-05 09:06 40.04637 -75.49404 10950 ft 201 kts 43°
2026-05-05 09:06 40.05597 -75.48076 10949 ft 201 kts 43°
2026-05-05 09:07 40.06555 -75.46749 10949 ft 201 kts 42°
2026-05-05 09:07 40.07517 -75.45418 10948 ft 202 kts 42°
2026-05-05 09:07 40.08480 -75.44084 10948 ft 202 kts 43°
2026-05-05 09:07 40.09440 -75.42753 10948 ft 201 kts 43°
2026-05-05 09:08 40.10399 -75.41422 10948 ft 201 kts 43°
2026-05-05 09:08 40.11356 -75.40091 10947 ft 201 kts 43°
2026-05-05 09:08 40.12314 -75.38758 10947 ft 201 kts 43°
2026-05-05 09:08 40.13273 -75.37428 10946 ft 201 kts 43°
2026-05-05 09:09 40.14233 -75.36096 10941 ft 201 kts 43°
2026-05-05 09:09 40.15191 -75.34763 10935 ft 201 kts 43°
2026-05-05 09:09 40.16148 -75.33432 10933 ft 201 kts 43°
2026-05-05 09:09 40.17105 -75.32100 10944 ft 201 kts 43°
2026-05-05 09:10 40.18061 -75.30771 10939 ft 201 kts 43°
2026-05-05 09:10 40.19006 -75.29454 10946 ft 201 kts 43°
2026-05-05 09:10 40.19963 -75.28121 10942 ft 201 kts 43°
2026-05-05 09:10 40.20922 -75.26785 10944 ft 201 kts 43°
2026-05-05 09:11 40.21879 -75.25450 10946 ft 201 kts 43°
2026-05-05 09:11 40.22832 -75.24121 10941 ft 200 kts 43°
2026-05-05 09:11 40.23784 -75.22793 10944 ft 200 kts 43°
2026-05-05 09:11 40.24739 -75.21460 10937 ft 200 kts 43°
2026-05-05 09:12 40.25694 -75.20125 10939 ft 200 kts 43°
2026-05-05 09:12 40.26646 -75.18794 10938 ft 200 kts 42°
2026-05-05 09:12 40.27589 -75.17479 10934 ft 200 kts 43°
2026-05-05 09:12 40.28541 -75.16146 10940 ft 200 kts 43°
2026-05-05 09:13 40.29493 -75.14811 10940 ft 200 kts 43°
2026-05-05 09:13 40.30445 -75.13481 10936 ft 200 kts 43°
2026-05-05 09:13 40.31395 -75.12150 10934 ft 200 kts 43°
2026-05-05 09:13 40.32348 -75.10813 10930 ft 200 kts 42°
2026-05-05 09:14 40.33300 -75.09481 10935 ft 200 kts 42°
2026-05-05 09:14 40.34250 -75.08147 10937 ft 200 kts 43°
2026-05-05 09:14 40.34879 -75.07263 10937 ft 199 kts 43°
2026-05-05 09:14 40.35825 -75.05933 10932 ft 200 kts 43°
2026-05-05 09:15 40.36773 -75.04603 10929 ft 199 kts 43°
2026-05-05 09:15 40.37718 -75.03273 10931 ft 199 kts 43°
2026-05-05 09:15 40.38970 -75.01512 10931 ft 199 kts 43°
2026-05-05 09:15 40.39609 -75.00613 10930 ft 199 kts 43°
2026-05-05 09:16 40.40556 -74.99278 10930 ft 199 kts 43°
2026-05-05 09:16 40.41490 -74.97964 10930 ft 199 kts 43°
2026-05-05 09:16 40.42437 -74.96630 10933 ft 200 kts 43°
2026-05-05 09:16 40.43384 -74.95296 10927 ft 200 kts 43°
2026-05-05 09:17 40.44334 -74.93960 10925 ft 200 kts 43°
2026-05-05 09:17 40.45279 -74.92628 10930 ft 199 kts 43°
2026-05-05 09:17 40.46224 -74.91294 10927 ft 199 kts 43°
2026-05-05 09:17 40.47167 -74.89962 10928 ft 199 kts 43°
2026-05-05 09:18 40.48103 -74.88644 10928 ft 199 kts 43°
2026-05-05 09:18 40.49047 -74.87309 10924 ft 199 kts 43°
2026-05-05 09:18 40.49990 -74.85979 10922 ft 199 kts 43°
2026-05-05 09:18 40.50934 -74.84644 10925 ft 199 kts 43°
2026-05-05 09:19 40.51881 -74.83305 10926 ft 199 kts 43°
2026-05-05 09:19 40.52825 -74.81968 10926 ft 199 kts 43°
2026-05-05 09:19 40.53768 -74.80636 10925 ft 199 kts 43°
2026-05-05 09:19 40.54715 -74.79296 10925 ft 200 kts 43°
2026-05-05 09:20 40.55658 -74.77960 10925 ft 199 kts 43°
2026-05-05 09:20 40.56589 -74.76640 10922 ft 199 kts 42°
2026-05-05 09:20 40.57535 -74.75299 10923 ft 199 kts 43°
2026-05-05 09:20 40.58487 -74.73970 10916 ft 198 kts 39°
2026-05-05 09:21 40.59494 -74.72734 10923 ft 198 kts 38°
2026-05-05 09:21 40.60492 -74.71483 10923 ft 198 kts 38°
2026-05-05 09:21 40.61489 -74.70229 10923 ft 198 kts 39°
2026-05-05 09:21 40.62489 -74.68974 10917 ft 198 kts 38°
2026-05-05 09:22 40.63490 -74.67724 10918 ft 198 kts 38°
2026-05-05 09:22 40.64488 -74.66473 10918 ft 198 kts 38°
2026-05-05 09:22 40.65487 -74.65220 10917 ft 198 kts 38°
2026-05-05 09:22 40.66489 -74.63966 10919 ft 199 kts 38°
2026-05-05 09:23 40.67491 -74.62708 10914 ft 199 kts 38°
2026-05-05 09:23 40.68484 -74.61463 10918 ft 199 kts 38°
2026-05-05 09:23 40.69488 -74.60206 10916 ft 199 kts 39°
2026-05-05 09:23 40.70488 -74.58947 10917 ft 199 kts 39°
2026-05-05 09:24 40.71487 -74.57693 10917 ft 199 kts 38°
2026-05-05 09:24 40.72488 -74.56435 10911 ft 198 kts 39°
2026-05-05 09:24 40.73486 -74.55179 10915 ft 198 kts 39°
2026-05-05 09:24 40.74484 -74.53925 10913 ft 198 kts 39°
2026-05-05 09:25 40.75480 -74.52671 10911 ft 197 kts 38°
2026-05-05 09:25 40.76474 -74.51421 10910 ft 197 kts 39°
2026-05-05 09:25 40.77467 -74.50171 10914 ft 197 kts 39°
2026-05-05 09:25 40.78460 -74.48919 10914 ft 197 kts 38°
2026-05-05 09:26 40.79453 -74.47668 10914 ft 198 kts 39°
2026-05-05 09:26 40.80445 -74.46414 10914 ft 197 kts 39°
2026-05-05 09:26 40.81438 -74.45160 10911 ft 197 kts 39°
2026-05-05 09:26 40.82417 -74.43925 10914 ft 198 kts 39°
2026-05-05 09:27 40.83415 -74.42666 10911 ft 198 kts 39°
2026-05-05 09:27 40.84409 -74.41409 10913 ft 198 kts 39°
2026-05-05 09:27 40.85417 -74.40137 10912 ft 198 kts 39°
2026-05-05 09:27 40.86412 -74.38877 10912 ft 198 kts 39°
2026-05-05 09:28 40.87409 -74.37618 10913 ft 199 kts 38°
2026-05-05 09:28 40.88406 -74.36355 10913 ft 199 kts 39°
2026-05-05 09:28 40.89406 -74.35089 10914 ft 199 kts 39°
2026-05-05 09:28 40.90405 -74.33822 10913 ft 198 kts 38°
2026-05-05 09:29 40.91389 -74.32576 10914 ft 198 kts 39°
2026-05-05 09:29 40.92387 -74.31312 10914 ft 199 kts 39°
2026-05-05 09:29 40.93383 -74.30047 10915 ft 199 kts 39°
2026-05-05 09:29 40.94386 -74.28777 10912 ft 199 kts 39°
2026-05-05 09:30 40.95387 -74.27507 10915 ft 199 kts 39°
2026-05-05 09:30 40.96388 -74.26235 10912 ft 199 kts 39°
2026-05-05 09:30 40.97387 -74.24965 10909 ft 199 kts 39°
2026-05-05 09:30 40.98387 -74.23694 10914 ft 200 kts 39°
2026-05-05 09:31 40.99386 -74.22423 10915 ft 199 kts 39°
2026-05-05 09:31 41.00383 -74.21154 10915 ft 199 kts 39°
2026-05-05 09:31 41.01383 -74.19882 10911 ft 199 kts 39°
2026-05-05 09:31 41.02381 -74.18614 10913 ft 199 kts 39°
2026-05-05 09:32 41.03381 -74.17338 10913 ft 199 kts 39°
2026-05-05 09:32 41.04382 -74.16063 10913 ft 200 kts 39°
2026-05-05 09:32 41.05381 -74.14788 10915 ft 200 kts 39°
2026-05-05 09:32 41.06381 -74.13513 10914 ft 199 kts 39°
2026-05-05 09:33 41.07302 -74.12165 10911 ft 202 kts 55°
2026-05-05 09:33 41.07939 -74.10495 10912 ft 203 kts 62°
2026-05-05 09:33 41.08582 -74.08824 10918 ft 203 kts 60°
2026-05-05 09:33 41.09234 -74.07159 10916 ft 203 kts 60°
2026-05-05 09:34 41.09878 -74.05492 10914 ft 203 kts 60°
2026-05-05 09:34 41.10521 -74.03828 10917 ft 203 kts 61°
2026-05-05 09:34 41.11164 -74.02161 10916 ft 203 kts 61°
2026-05-05 09:34 41.11805 -74.00494 10912 ft 203 kts 61°
2026-05-05 09:35 41.12449 -73.98825 10913 ft 203 kts 60°
2026-05-05 09:35 41.13733 -73.95499 10914 ft 203 kts 61°
2026-05-05 09:35 41.14373 -73.93832 10912 ft 202 kts 61°
2026-05-05 09:36 41.15013 -73.92167 10912 ft 202 kts 61°
2026-05-05 09:36 41.15651 -73.90507 10911 ft 202 kts 61°
2026-05-05 09:36 41.16289 -73.88846 10915 ft 202 kts 61°
2026-05-05 09:36 41.16925 -73.87190 10912 ft 202 kts 61°
2026-05-05 09:37 41.17556 -73.85550 10912 ft 202 kts 61°
2026-05-05 09:37 41.18192 -73.83890 10913 ft 202 kts 61°
2026-05-05 09:37 41.18830 -73.82226 10916 ft 202 kts 61°
2026-05-05 09:37 41.19454 -73.80599 10914 ft 202 kts 61°
2026-05-05 09:38 41.20102 -73.78907 10917 ft 201 kts 61°
2026-05-05 09:38 41.20737 -73.77245 10917 ft 202 kts 61°
2026-05-05 09:38 41.21374 -73.75579 10911 ft 202 kts 61°
2026-05-05 09:38 41.22010 -73.73918 10916 ft 202 kts 61°
2026-05-05 09:39 41.22645 -73.72256 10912 ft 202 kts 61°
2026-05-05 09:39 41.23279 -73.70593 10914 ft 201 kts 61°
2026-05-05 09:39 41.23914 -73.68931 10916 ft 202 kts 61°
2026-05-05 09:39 41.24548 -73.67266 10914 ft 202 kts 61°
2026-05-05 09:40 41.25184 -73.65600 10914 ft 202 kts 61°
2026-05-05 09:40 41.25819 -73.63933 10913 ft 202 kts 61°
2026-05-05 09:40 41.26452 -73.62267 10913 ft 202 kts 61°
2026-05-05 09:40 41.27085 -73.60605 10917 ft 201 kts 61°
2026-05-05 09:41 41.27718 -73.58943 10924 ft 201 kts 61°
2026-05-05 09:41 41.28191 -73.57196 10926 ft 202 kts 79°
2026-05-05 09:41 41.28449 -73.55364 10926 ft 202 kts 79°
2026-05-05 09:41 41.28739 -73.53536 10928 ft 202 kts 78°
2026-05-05 09:42 41.29027 -73.51732 10927 ft 203 kts 78°
2026-05-05 09:42 41.29313 -73.49900 10927 ft 202 kts 78°
2026-05-05 09:42 41.29598 -73.48069 10926 ft 202 kts 78°
2026-05-05 09:42 41.29882 -73.46242 10921 ft 202 kts 78°
2026-05-05 09:43 41.30162 -73.44448 10926 ft 202 kts 78°
2026-05-05 09:43 41.30452 -73.42578 10918 ft 202 kts 78°
2026-05-05 09:43 41.30737 -73.40744 10924 ft 202 kts 79°
2026-05-05 09:43 41.31020 -73.38916 10919 ft 202 kts 78°
2026-05-05 09:44 41.31305 -73.37081 10923 ft 203 kts 78°
2026-05-05 09:44 41.31589 -73.35243 10924 ft 203 kts 78°
2026-05-05 09:44 41.31874 -73.33404 10925 ft 202 kts 78°
2026-05-05 09:44 41.32157 -73.31572 10916 ft 202 kts 79°
2026-05-05 09:45 41.32438 -73.29738 10923 ft 202 kts 79°
2026-05-05 09:45 41.32721 -73.27905 10920 ft 202 kts 78°
2026-05-05 09:45 41.33003 -73.26077 10929 ft 201 kts 78°
2026-05-05 09:45 41.33284 -73.24257 10934 ft 201 kts 79°
2026-05-05 09:46 41.33564 -73.22431 10933 ft 201 kts 78°
2026-05-05 09:46 41.33844 -73.20610 10929 ft 201 kts 79°
2026-05-05 09:46 41.34123 -73.18786 10933 ft 201 kts 79°
2026-05-05 09:46 41.34399 -73.16985 10936 ft 200 kts 79°
2026-05-05 09:47 41.34676 -73.15166 10925 ft 201 kts 79°
2026-05-05 09:47 41.34955 -73.13348 10934 ft 200 kts 79°
2026-05-05 09:47 41.35233 -73.11529 10928 ft 201 kts 79°
2026-05-05 09:47 41.35510 -73.09710 10933 ft 201 kts 79°
2026-05-05 09:48 41.35786 -73.07889 10933 ft 200 kts 79°
2026-05-05 09:48 41.36062 -73.06070 10935 ft 201 kts 79°
2026-05-05 09:48 41.36340 -73.04248 10935 ft 201 kts 79°
2026-05-05 09:48 41.36619 -73.02423 10934 ft 201 kts 79°
2026-05-05 09:49 41.36895 -73.00596 10930 ft 201 kts 79°
2026-05-05 09:49 41.37171 -72.98771 10933 ft 201 kts 79°
2026-05-05 09:49 41.37445 -72.96956 10936 ft 200 kts 79°
2026-05-05 09:49 41.37721 -72.95130 10935 ft 201 kts 79°
2026-05-05 09:50 41.37997 -72.93307 10933 ft 201 kts 79°
2026-05-05 09:50 41.38272 -72.91484 10933 ft 201 kts 79°
2026-05-05 09:50 41.38545 -72.89656 10933 ft 201 kts 79°
2026-05-05 09:50 41.38819 -72.87832 10932 ft 201 kts 79°
2026-05-05 09:51 41.39096 -72.86007 10924 ft 200 kts 79°
2026-05-05 09:51 41.39261 -72.84175 10929 ft 198 kts 96°
2026-05-05 09:51 41.39102 -72.82379 10935 ft 198 kts 99°
2026-05-05 09:51 41.38965 -72.80546 10932 ft 199 kts 98°
2026-05-05 09:52 41.38834 -72.78712 10932 ft 199 kts 99°
2026-05-05 09:52 41.38695 -72.76876 10937 ft 200 kts 99°
2026-05-05 09:52 41.38556 -72.75034 10936 ft 200 kts 99°
2026-05-05 09:52 41.38416 -72.73192 10936 ft 200 kts 99°
2026-05-05 09:53 41.38276 -72.71351 10936 ft 199 kts 99°
2026-05-05 09:53 41.38137 -72.69518 10936 ft 199 kts 99°
2026-05-05 09:53 41.37996 -72.67688 10934 ft 199 kts 99°
2026-05-05 09:53 41.37856 -72.65860 10929 ft 199 kts 98°
2026-05-05 09:54 41.37717 -72.64023 10933 ft 199 kts 99°
2026-05-05 09:54 41.37576 -72.62196 10944 ft 198 kts 99°
2026-05-05 09:54 41.37435 -72.60368 10944 ft 198 kts 99°
2026-05-05 09:54 41.37296 -72.58539 10936 ft 199 kts 99°
2026-05-05 09:55 41.37154 -72.56707 10944 ft 199 kts 99°
2026-05-05 09:55 41.37013 -72.54877 10943 ft 199 kts 99°
2026-05-05 09:55 41.36874 -72.53070 10943 ft 199 kts 99°
2026-05-05 09:55 41.36730 -72.51240 10942 ft 198 kts 99°
2026-05-05 09:56 41.36588 -72.49416 10942 ft 198 kts 99°
2026-05-05 09:56 41.36445 -72.47583 10938 ft 198 kts 99°
2026-05-05 09:56 41.36302 -72.45756 10932 ft 199 kts 99°
2026-05-05 09:56 41.36159 -72.43926 10942 ft 198 kts 99°
2026-05-05 09:57 41.36018 -72.42123 10944 ft 198 kts 99°
2026-05-05 09:57 41.35874 -72.40303 10943 ft 198 kts 99°
2026-05-05 09:57 41.35730 -72.38479 10942 ft 198 kts 99°
2026-05-05 09:57 41.35587 -72.36663 10942 ft 198 kts 99°
2026-05-05 09:58 41.35443 -72.34841 10944 ft 198 kts 99°
2026-05-05 09:58 41.35298 -72.33017 10942 ft 198 kts 99°
2026-05-05 09:58 41.35152 -72.31185 10943 ft 198 kts 99°
2026-05-05 09:58 41.35007 -72.29363 10943 ft 198 kts 99°
2026-05-05 09:59 41.34861 -72.27542 10937 ft 198 kts 99°
2026-05-05 09:59 41.34718 -72.25740 10933 ft 198 kts 99°
2026-05-05 09:59 41.34573 -72.23910 10953 ft 198 kts 99°
2026-05-05 09:59 41.34423 -72.22080 10951 ft 198 kts 99°
2026-05-05 10:00 41.34277 -72.20253 10951 ft 198 kts 99°
2026-05-05 10:00 41.34130 -72.18430 10949 ft 198 kts 99°
2026-05-05 10:00 41.33983 -72.16601 10951 ft 198 kts 99°
2026-05-05 10:00 41.33835 -72.14777 10949 ft 198 kts 99°
2026-05-05 10:01 41.33737 -72.13569 10949 ft 198 kts 99°
2026-05-05 10:01 41.33589 -72.11751 10950 ft 198 kts 99°
2026-05-05 10:01 41.33440 -72.09936 10950 ft 198 kts 99°
2026-05-05 10:01 41.33292 -72.08113 10949 ft 198 kts 99°
2026-05-05 10:02 41.33095 -72.05696 10951 ft 198 kts 99°
2026-05-05 10:02 41.33105 -72.03859 10954 ft 200 kts 87°
2026-05-05 10:02 41.33184 -72.02614 10954 ft 200 kts 87°
2026-05-05 10:02 41.33288 -72.00770 10953 ft 200 kts 88°
2026-05-05 10:03 41.33380 -71.98927 10951 ft 200 kts 88°
2026-05-05 10:03 41.33472 -71.97109 10951 ft 199 kts 88°
2026-05-05 10:03 41.33567 -71.95243 10951 ft 200 kts 88°
2026-05-05 10:03 41.33665 -71.93416 10951 ft 201 kts 88°
2026-05-05 10:04 41.33757 -71.91564 10953 ft 200 kts 88°
2026-05-05 10:04 41.33849 -71.89712 10961 ft 200 kts 88°
2026-05-05 10:04 41.33943 -71.87863 10960 ft 200 kts 88°
2026-05-05 10:04 41.34037 -71.86016 10959 ft 200 kts 88°
2026-05-05 10:05 41.34129 -71.84167 10959 ft 200 kts 88°
2026-05-05 10:05 41.34222 -71.82319 10958 ft 200 kts 88°
2026-05-05 10:05 41.34315 -71.80475 10959 ft 199 kts 88°
2026-05-05 10:05 41.34408 -71.78633 10960 ft 199 kts 88°
2026-05-05 10:06 41.34499 -71.76796 10961 ft 199 kts 88°
2026-05-05 10:06 41.34587 -71.74959 10960 ft 199 kts 88°
2026-05-05 10:06 41.34676 -71.73143 10959 ft 199 kts 88°
2026-05-05 10:06 41.34764 -71.71305 10958 ft 199 kts 88°
2026-05-05 10:07 41.34857 -71.69449 10959 ft 199 kts 88°
2026-05-05 10:07 41.34946 -71.67637 10958 ft 199 kts 88°
2026-05-05 10:07 41.35034 -71.65800 10959 ft 199 kts 88°
2026-05-05 10:07 41.35124 -71.63968 10959 ft 198 kts 88°
2026-05-05 10:08 41.35214 -71.62132 10960 ft 198 kts 88°
2026-05-05 10:08 41.35301 -71.60299 10959 ft 198 kts 88°
2026-05-05 10:08 41.35390 -71.58465 10959 ft 199 kts 88°
2026-05-05 10:08 41.35477 -71.56630 10958 ft 199 kts 88°
2026-05-05 10:09 41.35565 -71.54796 10959 ft 199 kts 88°
2026-05-05 10:09 41.35650 -71.52962 10959 ft 199 kts 88°
2026-05-05 10:09 41.35737 -71.51127 10958 ft 199 kts 88°
2026-05-05 10:09 41.35824 -71.49288 10959 ft 199 kts 88°
2026-05-05 10:10 41.35910 -71.47455 10958 ft 199 kts 88°
2026-05-05 10:10 41.35997 -71.45616 10960 ft 199 kts 88°
2026-05-05 10:10 41.36082 -71.43778 10959 ft 199 kts 88°
2026-05-05 10:10 41.36166 -71.41966 10959 ft 199 kts 88°
2026-05-05 10:11 41.36253 -71.40105 10958 ft 199 kts 88°
2026-05-05 10:11 41.36337 -71.38291 10958 ft 198 kts 88°
2026-05-05 10:11 41.36422 -71.36455 10959 ft 198 kts 88°
2026-05-05 10:11 41.36507 -71.34624 10958 ft 198 kts 88°
2026-05-05 10:12 41.36590 -71.32796 10960 ft 198 kts 88°
2026-05-05 10:12 41.36674 -71.30968 10959 ft 198 kts 88°
2026-05-05 10:12 41.36757 -71.29140 10958 ft 198 kts 88°
2026-05-05 10:12 41.36839 -71.27310 10959 ft 198 kts 88°
2026-05-05 10:13 41.36923 -71.25480 10959 ft 198 kts 88°
2026-05-05 10:13 41.37005 -71.23658 10958 ft 198 kts 88°
2026-05-05 10:13 41.37087 -71.21832 10960 ft 198 kts 88°
2026-05-05 10:13 41.37167 -71.20026 10959 ft 198 kts 88°
2026-05-05 10:14 41.37250 -71.18196 10959 ft 198 kts 88°
2026-05-05 10:14 41.37331 -71.16366 10959 ft 198 kts 88°
2026-05-05 10:14 41.37411 -71.14535 10959 ft 198 kts 88°
2026-05-05 10:14 41.37492 -71.12705 10959 ft 198 kts 88°
2026-05-05 10:15 41.37573 -71.10876 10958 ft 198 kts 88°
2026-05-05 10:15 41.37654 -71.09040 10958 ft 199 kts 88°
2026-05-05 10:15 41.37733 -71.07202 10960 ft 198 kts 88°
2026-05-05 10:15 41.37812 -71.05370 10959 ft 198 kts 88°
2026-05-05 10:16 41.37891 -71.03540 10958 ft 197 kts 88°
2026-05-05 10:16 41.37970 -71.01720 10960 ft 197 kts 88°
2026-05-05 10:16 41.38049 -70.99896 10959 ft 197 kts 88°
2026-05-05 10:16 41.38125 -70.98075 10958 ft 197 kts 88°
2026-05-05 10:17 41.38202 -70.96278 10970 ft 196 kts 88°
2026-05-05 10:17 41.38279 -70.94458 10969 ft 197 kts 88°
2026-05-05 10:17 41.38356 -70.92635 10980 ft 196 kts 88°
2026-05-05 10:17 41.38433 -70.90816 10979 ft 197 kts 88°
2026-05-05 10:18 41.38510 -70.88997 10979 ft 197 kts 88°
2026-05-05 10:18 41.38586 -70.87173 10975 ft 197 kts 88°
2026-05-05 10:18 41.38662 -70.85352 10980 ft 197 kts 88°
2026-05-05 10:18 41.38737 -70.83539 10988 ft 196 kts 88°
2026-05-05 10:19 41.38812 -70.81720 10989 ft 197 kts 88°
2026-05-05 10:19 41.38888 -70.79902 10986 ft 197 kts 88°
2026-05-05 10:19 41.38961 -70.78106 10982 ft 197 kts 88°
2026-05-05 10:19 41.39035 -70.76282 10988 ft 197 kts 88°
2026-05-05 10:20 41.39109 -70.74462 10990 ft 197 kts 88°
2026-05-05 10:20 41.39183 -70.72643 10989 ft 197 kts 88°
2026-05-05 10:20 41.39257 -70.70835 10989 ft 197 kts 88°
2026-05-05 10:20 41.39330 -70.69009 10987 ft 197 kts 88°
2026-05-05 10:21 41.39403 -70.67187 10988 ft 197 kts 88°
2026-05-05 10:21 41.39475 -70.65366 10987 ft 197 kts 88°
2026-05-05 10:21 41.39548 -70.63545 10987 ft 197 kts 88°
2026-05-05 10:21 41.39620 -70.61721 10987 ft 197 kts 88°
2026-05-05 10:22 41.39381 -70.59975 10982 ft 190 kts 123°
2026-05-05 10:22 41.38477 -70.58852 10983 ft 175 kts 164°
2026-05-05 10:22 41.37341 -70.58780 10986 ft 160 kts 204°
2026-05-05 10:22 41.36556 -70.59706 10984 ft 152 kts 245°
2026-05-05 10:23 41.36521 -70.61091 10985 ft 156 kts 283°
2026-05-05 10:23 41.36841 -70.62463 11002 ft 155 kts 281°
2026-05-05 10:23 41.37213 -70.63820 11001 ft 157 kts 289°
2026-05-05 10:23 41.37823 -70.65053 10989 ft 163 kts 305°
2026-05-05 10:24 41.38760 -70.65953 10988 ft 172 kts 329°
2026-05-05 10:24 41.39973 -70.66174 10980 ft 185 kts
2026-05-05 10:24 41.41192 -70.65535 10991 ft 190 kts 19°
2026-05-05 10:24 41.42412 -70.64887 10998 ft 188 kts 12°
2026-05-05 10:25 41.43657 -70.64378 11001 ft 188 kts
2026-05-05 10:25 41.44907 -70.63882 11001 ft 187 kts 10°
2026-05-05 10:25 41.46109 -70.63200 10981 ft 194 kts 33°
2026-05-05 10:25 41.46858 -70.61712 10983 ft 198 kts 74°
2026-05-05 10:26 41.46802 -70.59928 10984 ft 192 kts 115°
2026-05-05 10:26 41.45998 -70.58624 10983 ft 179 kts 156°
2026-05-05 10:26 41.44860 -70.58329 10986 ft 163 kts 196°
2026-05-05 10:26 41.43851 -70.58872 10987 ft 157 kts 217°
2026-05-05 10:27 41.42965 -70.59710 10997 ft 157 kts 216°
2026-05-05 10:27 41.41951 -70.60293 11006 ft 160 kts 204°
2026-05-05 10:27 41.40885 -70.60739 11004 ft 161 kts 202°
2026-05-05 10:27 41.39812 -70.61173 11005 ft 161 kts 202°
2026-05-05 10:28 41.38781 -70.61711 10984 ft 157 kts 219°
2026-05-05 10:28 41.38182 -70.62865 10985 ft 153 kts 251°
2026-05-05 10:28 41.38182 -70.64256 10983 ft 156 kts 282°
2026-05-05 10:28 41.38829 -70.65450 10984 ft 168 kts 316°
2026-05-05 10:29 41.39983 -70.65879 10986 ft 183 kts 356°
2026-05-05 10:29 41.41238 -70.65453 10987 ft 189 kts 12°
2026-05-05 10:29 41.42466 -70.64890 10988 ft 188 kts 12°
2026-05-05 10:29 41.43714 -70.64363 10991 ft 188 kts 10°
2026-05-05 10:30 41.44959 -70.63859 10995 ft 187 kts 11°
2026-05-05 10:30 41.46101 -70.62985 10980 ft 196 kts 43°
2026-05-05 10:30 41.46664 -70.61347 10984 ft 197 kts 85°
2026-05-05 10:30 41.46393 -70.59617 10986 ft 189 kts 126°
2026-05-05 10:31 41.45451 -70.58540 10984 ft 174 kts 166°
2026-05-05 10:31 41.44316 -70.58536 10987 ft 159 kts 206°
2026-05-05 10:31 41.43422 -70.59322 10995 ft 155 kts 220°
2026-05-05 10:31 41.42476 -70.60043 11007 ft 159 kts 207°
2026-05-05 10:32 41.41419 -70.60519 11003 ft 161 kts 202°
2026-05-05 10:32 41.40348 -70.60955 11004 ft 160 kts 202°
2026-05-05 10:32 41.39279 -70.61393 11003 ft 160 kts 204°
2026-05-05 10:32 41.38415 -70.62225 10986 ft 154 kts 237°
2026-05-05 10:33 41.38101 -70.63556 10987 ft 154 kts 267°
2026-05-05 10:33 41.38430 -70.64918 10986 ft 161 kts 299°
2026-05-05 10:33 41.39369 -70.65794 10986 ft 175 kts 336°
2026-05-05 10:33 41.40615 -70.65719 10984 ft 187 kts
2026-05-05 10:34 41.41856 -70.65165 10990 ft 188 kts 13°
2026-05-05 10:34 41.43085 -70.64622 10998 ft 188 kts 11°
2026-05-05 10:34 41.44331 -70.64113 10999 ft 187 kts 10°
2026-05-05 10:34 41.45563 -70.63537 10986 ft 191 kts 22°
2026-05-05 10:35 41.46477 -70.62238 10983 ft 198 kts 64°
2026-05-05 10:35 41.46637 -70.60457 10982 ft 194 kts 104°
2026-05-05 10:35 41.45996 -70.58963 10987 ft 182 kts 145°
2026-05-05 10:35 41.44887 -70.58382 10985 ft 166 kts 186°
2026-05-05 10:36 41.43858 -70.58867 10988 ft 156 kts 219°
2026-05-05 10:36 41.42982 -70.59717 10998 ft 157 kts 215°
2026-05-05 10:36 41.41964 -70.60288 11003 ft 161 kts 204°
2026-05-05 10:36 41.40895 -70.60732 11006 ft 161 kts 202°
2026-05-05 10:37 41.39820 -70.61169 11005 ft 161 kts 202°
2026-05-05 10:37 41.38790 -70.61702 10991 ft 157 kts 219°
2026-05-05 10:37 41.38185 -70.62848 10985 ft 153 kts 251°
2026-05-05 10:37 41.38176 -70.64236 10985 ft 156 kts 282°
2026-05-05 10:38 41.38786 -70.65407 10986 ft 167 kts 315°
2026-05-05 10:38 41.39920 -70.65885 10986 ft 182 kts 354°
2026-05-05 10:38 41.41178 -70.65482 10988 ft 188 kts 12°
2026-05-05 10:38 41.42419 -70.64911 10987 ft 188 kts 12°
2026-05-05 10:39 41.43670 -70.64382 10996 ft 188 kts 10°
2026-05-05 10:39 41.44920 -70.63875 10996 ft 187 kts 11°
2026-05-05 10:39 41.46056 -70.63046 10982 ft 195 kts 41°
2026-05-05 10:39 41.46656 -70.61436 10982 ft 197 kts 83°
2026-05-05 10:40 41.46428 -70.59694 10985 ft 189 kts 123°
2026-05-05 10:40 41.45511 -70.58567 10984 ft 175 kts 164°
2026-05-05 10:40 41.44372 -70.58499 10985 ft 160 kts 204°
2026-05-05 10:40 41.43460 -70.59278 10991 ft 155 kts 221°
2026-05-05 10:41 41.42526 -70.60014 11004 ft 159 kts 207°
2026-05-05 10:41 41.41472 -70.60498 11006 ft 161 kts 202°
2026-05-05 10:41 41.40401 -70.60933 11004 ft 161 kts 202°
2026-05-05 10:41 41.39332 -70.61369 11004 ft 160 kts 203°
2026-05-05 10:42 41.38100 -70.63469 10985 ft 153 kts 265°
2026-05-05 10:42 41.38389 -70.64842 10985 ft 160 kts 297°
2026-05-05 10:42 41.39292 -70.65765 10983 ft 174 kts 333°
2026-05-05 10:43 41.40536 -70.65747 10984 ft 187 kts
2026-05-05 10:43 41.41780 -70.65202 10991 ft 189 kts 13°
2026-05-05 10:43 41.43024 -70.64651 10988 ft 188 kts 11°
2026-05-05 10:43 41.44276 -70.64136 10990 ft 188 kts 10°
2026-05-05 10:44 41.45510 -70.63576 10983 ft 190 kts 21°
2026-05-05 10:44 41.46442 -70.62339 10981 ft 197 kts 61°
2026-05-05 10:44 41.46651 -70.60562 10980 ft 195 kts 102°
2026-05-05 10:44 41.46049 -70.59030 10986 ft 183 kts 143°
2026-05-05 10:45 41.44957 -70.58382 10985 ft 168 kts 183°
2026-05-05 10:45 41.43908 -70.58809 10981 ft 156 kts 219°
2026-05-05 10:45 41.43037 -70.59668 11000 ft 156 kts 216°
2026-05-05 10:45 41.42026 -70.60259 11005 ft 160 kts 204°
2026-05-05 10:46 41.40960 -70.60705 11003 ft 161 kts 202°
2026-05-05 10:46 41.39887 -70.61141 11004 ft 161 kts 202°
2026-05-05 10:46 41.38845 -70.61653 10992 ft 157 kts 216°
2026-05-05 10:46 41.38200 -70.62754 10905 ft 155 kts 248°
2026-05-05 10:47 41.38145 -70.64059 10603 ft 134 kts 278°
2026-05-05 10:47 41.38378 -70.64803 10397 ft 131 kts 295°
2026-05-05 10:47 41.39336 -70.65773 9987 ft 138 kts 333°
2026-05-05 10:47 41.40327 -70.65767 9691 ft 145 kts 358°
2026-05-05 10:48 41.41322 -70.65608 9410 ft 143 kts 357°
2026-05-05 10:48 41.42308 -70.65454 9130 ft 142 kts 357°
2026-05-05 10:48 41.42970 -70.65350 8943 ft 142 kts 357°
2026-05-05 10:48 41.43956 -70.65193 8666 ft 142 kts 357°
2026-05-05 10:49 41.44934 -70.65035 8391 ft 141 kts 357°
2026-05-05 10:49 41.45910 -70.64881 8116 ft 141 kts 357°
2026-05-05 10:49 41.46885 -70.64727 7840 ft 141 kts 357°
2026-05-05 10:49 41.47866 -70.64539 7538 ft 146 kts
2026-05-05 10:50 41.48664 -70.63686 7218 ft 156 kts 61°
2026-05-05 10:50 41.48896 -70.62300 6917 ft 153 kts 88°
2026-05-05 10:50 41.49020 -70.60878 6583 ft 155 kts 86°
2026-05-05 10:50 41.49172 -70.59442 6243 ft 157 kts 79°
2026-05-05 10:51 41.49563 -70.58076 5905 ft 158 kts 67°
2026-05-05 10:51 41.50011 -70.56736 5559 ft 158 kts 67°
2026-05-05 10:51 41.50460 -70.55398 5211 ft 158 kts 67°
2026-05-05 10:51 41.50914 -70.54054 4861 ft 159 kts 67°
2026-05-05 10:52 41.51099 -70.52657 4490 ft 151 kts 110°
2026-05-05 10:52 41.50568 -70.51610 4115 ft 127 kts 162°
2026-05-05 10:52 41.49769 -70.51312 3743 ft 116 kts 185°
2026-05-05 10:52 41.49010 -70.51403 3393 ft 104 kts 207°
2026-05-05 10:53 41.48385 -70.51827 3089 ft 97 kts 215°
2026-05-05 10:53 41.47810 -70.52244 2832 ft 95 kts 214°
2026-05-05 10:53 41.47216 -70.52648 2569 ft 97 kts 212°
2026-05-05 10:53 41.46600 -70.53051 2322 ft 100 kts 210°
2026-05-05 10:54 41.45979 -70.53479 2064 ft 101 kts 218°
2026-05-05 10:54 41.45456 -70.54111 1813 ft 103 kts 220°
2026-05-05 10:54 41.44909 -70.54742 1563 ft 105 kts 220°
2026-05-05 10:54 41.44351 -70.55388 1313 ft 107 kts 220°
2026-05-05 10:55 41.43782 -70.56046 1095 ft 108 kts 220°
2026-05-05 10:55 41.43226 -70.56688 1066 ft 109 kts 219°
2026-05-05 10:55 41.42627 -70.57366 1075 ft 115 kts 219°
2026-05-05 10:55 41.42009 -70.58107 945 ft 122 kts 220°
2026-05-05 10:56 41.41407 -70.58841 699 ft 109 kts 222°
2026-05-05 10:56 41.40843 -70.59453 449 ft 102 kts 218°
2026-05-05 10:56 41.40325 -70.60042 277 ft 97 kts 219°
2026-05-05 10:56 41.39824 -70.60617 104 ft 91 kts 220°
2026-05-05 10:57 41.39387 -70.61116 66 ft 71 kts 220°
2026-05-05 10:57 41.39147 -70.61392 65 ft 22 kts 221°
2026-05-05 10:57 41.39038 -70.61450 63 ft 20 kts 130°
2026-05-05 10:57 41.39007 -70.61401 65 ft 0 kts 128°
2026-05-05 10:58 41.38956 -70.61420 59 ft 18 kts 219°
2026-05-05 10:58 41.38891 -70.61489 59 ft 7 kts 195°
2026-05-05 10:58 41.38865 -70.61466 59 ft 3 kts 176°
2026-05-05 10:58 41.38856 -70.61476 62 ft 1 kts 221°
2026-05-05 10:59 41.38854 -70.61478 66 ft 0 kts 221°